N8AMF Weather Reports


time (UTC)temp
C
wind
direction
speed
KPH
gust
KPH
rain 1hr
cm
rain 24hr
cm
rain mn
cm
humidity
%
barometer
mb
20260504060201 10 201 3.2 4.8 0.00 0.00 0.00 68 1009.1
20260504050629 10 195 1.6 12.9 0.00 0.00 0.00 65 1009.9
20260504050126 10 204 4.8 6.4 0.00 0.00 0.00 66 1010.0
20260504045623 10 170 3.2 9.7 0.00 0.00 0.00 65 1010.1
20260504045118 10 209 6.4 9.7 0.00 0.00 0.00 66 1010.0
20260504044616 10 208 11.3 14.5 0.00 0.00 0.00 65 1010.0
20260504044113 10 109 3.2 12.9 0.00 0.00 0.00 66 1009.8
20260504043610 10 138 3.2 12.9 0.00 0.00 0.00 66 1010.2
20260504043107 10 208 3.2 8.0 0.00 0.00 0.00 67 1010.2
20260504042604 10 202 3.2 9.7 0.00 0.00 0.00 67 1010.2
20260504042101 10 158 3.2 9.7 0.00 0.00 0.00 67 1010.1
20260504041556 10 182 3.2 6.4 0.00 0.00 0.00 68 1010.3
20260504041053 10 147 3.2 11.3 0.00 0.00 0.00 68 1010.1
20260504040551 10 161 3.2 4.8 0.00 0.00 0.00 69 1010.5
20260504040047 10 192 3.2 9.7 0.00 0.00 0.00 68 1010.4
20260504035544 10 179 3.2 11.3 0.00 0.00 0.00 68 1010.4
20260504035040 10 200 4.8 8.0 0.00 0.00 0.00 69 1010.6
20260504034538 10 121 3.2 6.4 0.00 0.00 0.00 68 1010.6
20260504034035 10 190 0.0 9.7 0.00 0.00 0.00 68 1010.4
20260504033533 10 201 6.4 8.0 0.00 0.00 0.00 66 1010.8
20260504033030 10 206 3.2 16.1 0.00 0.00 0.00 66 1010.9
20260504032527 10 196 3.2 4.8 0.00 0.00 0.00 66 1010.7
20260504032024 10 171 3.2 11.3 0.00 0.00 0.00 66 1010.9
20260504031521 11 234 4.8 6.4 0.00 0.00 0.00 66 1010.8
20260504031017 11 209 3.2 14.5 0.00 0.00 0.00 65 1010.8
20260504030514 11 186 3.2 6.4 0.00 0.00 0.00 65 1010.8
20260504030010 11 164 1.6 11.3 0.00 0.00 0.00 65 1011.1
20260504025507 11 326 0.0 8.0 0.00 0.00 0.00 64 1011.1
20260504025004 11 188 3.2 6.4 0.00 0.00 0.00 64 1011.1
20260504024502 11 207 3.2 8.0 0.00 0.00 0.00 64 1011.3
20260504023958 11 136 1.6 6.4 0.00 0.00 0.00 64 1011.4
20260504023455 11 348 3.2 11.3 0.00 0.00 0.00 64 1011.4
20260504022950 11 135 1.6 6.4 0.00 0.00 0.00 64 1011.2
20260504022447 11 181 4.8 6.4 0.00 0.00 0.00 63 1011.2
20260504021943 11 120 8.0 11.3 0.00 0.00 0.00 62 1011.2
20260504021441 11 119 3.2 11.3 0.00 0.00 0.00 62 1011.1
20260504020938 11 201 1.6 8.0 0.00 0.00 0.00 62 1011.3
20260504020434 11 241 0.0 6.4 0.00 0.00 0.00 62 1011.2
20260504015931 11 200 4.8 4.8 0.00 0.00 0.00 61 1011.5
20260504015427 11 228 3.2 8.0 0.00 0.00 0.00 62 1011.5
20260504014923 11 206 3.2 11.3 0.00 0.00 0.00 61 1011.5
20260504014419 11 193 4.8 9.7 0.00 0.00 0.00 60 1011.4
20260504013916 11 188 1.6 4.8 0.00 0.00 0.00 60 1011.5
20260504013415 11 196 3.2 8.0 0.00 0.00 0.00 59 1011.6
20260504012910 11 221 4.8 17.7 0.00 0.00 0.00 59 1011.4
20260504012409 11 209 4.8 9.7 0.00 0.00 0.00 60 1011.4
20260504011906 11 211 3.2 6.4 0.00 0.00 0.00 59 1011.4
20260504011403 12 205 0.0 11.3 0.00 0.00 0.00 58 1011.4
20260504010858 12 196 3.2 9.7 0.00 0.00 0.00 57 1011.2
20260504010354 12 195 3.2 11.3 0.00 0.00 0.00 55 1011.2
20260504005851 12 227 8.0 19.3 0.00 0.00 0.00 52 1011.0
20260504005348 13 216 4.8 17.7 0.00 0.00 0.00 49 1011.2
20260504004845 12 220 6.4 11.3 0.00 0.00 0.00 46 1010.9
20260504004343 12 180 0.0 4.8 0.00 0.00 0.00 46 1010.9
20260504003839 12 228 4.8 6.4 0.00 0.00 0.00 45 1010.7
20260504003336 13 204 1.6 4.8 0.00 0.00 0.00 44 1010.5
20260504002833 13 32 1.6 6.4 0.00 0.00 0.00 44 1010.5
20260504002330 13 49 0.0 6.4 0.00 0.00 0.00 43 1010.8
20260504001827 13 233 3.2 11.3 0.00 0.00 0.00 41 1010.6
20260504001324 13 232 4.8 11.3 0.00 0.00 0.00 42 1010.6
20260504000821 13 199 3.2 16.1 0.00 0.00 0.00 41 1010.6
20260504000318 14 121 0.0 8.0 0.00 0.00 0.00 42 1010.6
20260503235816 14 245 0.0 9.7 0.00 0.00 0.00 42 1010.6
20260503235313 14 207 6.4 11.3 0.00 0.00 0.00 41 1010.5
20260503234811 15 219 3.2 14.5 0.00 0.00 0.00 40 1010.7
20260503234308 15 213 6.4 11.3 0.00 0.00 0.00 41 1010.6
20260503233806 15 222 3.2 12.9 0.00 0.00 0.00 40 1010.6
20260503233301 15 204 4.8 17.7 0.00 0.00 0.00 41 1010.6
20260503232758 15 179 4.8 12.9 0.00 0.00 0.00 40 1010.6
20260503232256 15 216 3.2 14.5 0.00 0.00 0.00 40 1010.6
20260503231754 15 160 1.6 14.5 0.00 0.00 0.00 39 1010.7
20260503231250 15 204 6.4 19.3 0.00 0.00 0.00 40 1010.7
20260503230746 15 345 4.8 17.7 0.00 0.00 0.00 39 1010.7
20260503230244 15 188 4.8 12.9 0.00 0.00 0.00 39 1011.0
20260503225741 15 224 1.6 16.1 0.00 0.00 0.00 38 1010.8
20260503225241 15 213 8.0 9.7 0.00 0.00 0.00 39 1010.8
20260503224738 15 43 3.2 14.5 0.00 0.00 0.00 40 1010.8
20260503224236 15 216 6.4 19.3 0.00 0.00 0.00 38 1010.8
20260503223733 16 201 4.8 12.9 0.00 0.00 0.00 38 1010.7
20260503223231 16 231 6.4 14.5 0.00 0.00 0.00 37 1011.0
20260503222727 16 209 8.0 19.3 0.00 0.00 0.00 37 1011.0
20260503222225 16 233 4.8 11.3 0.00 0.00 0.00 39 1010.9
20260503221723 16 210 4.8 19.3 0.00 0.00 0.00 37 1010.9
20260503221221 16 198 6.4 14.5 0.00 0.00 0.00 37 1011.0
20260503220717 16 215 6.4 17.7 0.00 0.00 0.00 37 1011.0
20260503220214 16 198 4.8 12.9 0.00 0.00 0.00 35 1011.2
20260503215710 16 14 3.2 12.9 0.00 0.00 0.00 39 1010.8
20260503215208 16 217 16.1 22.5 0.00 0.00 0.00 36 1011.2
20260503214706 16 225 4.8 17.7 0.00 0.00 0.00 36 1011.0
20260503214202 17 221 19.3 27.4 0.00 0.00 0.00 35 1011.2
20260503213701 17 207 6.4 20.9 0.00 0.00 0.00 34 1011.1
20260503213157 17 211 4.8 27.4 0.00 0.00 0.00 34 1011.1
20260503212654 17 241 4.8 14.5 0.00 0.00 0.00 36 1011.1
20260503212152 17 223 9.7 24.1 0.00 0.00 0.00 34 1011.0
20260503211650 17 215 6.4 17.7 0.00 0.00 0.00 36 1011.0
20260503211145 16 223 4.8 20.9 0.00 0.00 0.00 36 1011.1
20260503210641 17 216 6.4 11.3 0.00 0.00 0.00 35 1011.1
20260503210138 17 217 8.0 20.9 0.00 0.00 0.00 34 1011.3
20260503205634 16 219 8.0 22.5 0.00 0.00 0.00 36 1011.2
20260503205130 17 223 8.0 14.5 0.00 0.00 0.00 36 1011.2
20260503204627 16 191 6.4 17.7 0.00 0.00 0.00 36 1011.3
20260503204125 16 97 8.0 22.5 0.00 0.00 0.00 37 1011.3
20260503203621 16 225 9.7 22.5 0.00 0.00 0.00 38 1011.3
20260503203119 16 213 3.2 11.3 0.00 0.00 0.00 39 1011.2
20260503202616 16 208 6.4 14.5 0.00 0.00 0.00 38 1011.3
20260503202114 16 211 6.4 11.3 0.00 0.00 0.00 38 1011.2
20260503201612 16 218 6.4 17.7 0.00 0.00 0.00 37 1011.5
20260503201109 16 203 6.4 8.0 0.00 0.00 0.00 38 1011.5
20260503200605 16 201 3.2 11.3 0.00 0.00 0.00 38 1011.7
20260503195559 17 200 4.8 19.3 0.00 0.00 0.00 37 1011.5
20260503195056 17 222 14.5 35.4 0.00 0.00 0.00 34 1011.6
20260503194553 16 212 8.0 16.1 0.00 0.00 0.00 38 1011.7
20260503194053 17 223 6.4 17.7 0.00 0.00 0.00 37 1012.0
20260503193550 17 206 6.4 16.1 0.00 0.00 0.00 40 1012.1
20260503193045 17 204 4.8 19.3 0.00 0.00 0.00 36 1012.1
20260503192541 16 195 0.0 14.5 0.00 0.00 0.00 37 1012.2
20260503192037 16 227 8.0 14.5 0.00 0.00 0.00 37 1012.2
20260503191534 16 147 4.8 11.3 0.00 0.00 0.00 39 1012.2
20260503191031 16 212 8.0 11.3 0.00 0.00 0.00 37 1012.5
20260503190528 16 197 6.4 24.1 0.00 0.00 0.00 36 1012.4
20260503190025 17 216 8.0 17.7 0.00 0.00 0.00 37 1012.5
20260503185521 16 207 3.2 9.7 0.00 0.00 0.00 40 1012.5
20260503185020 17 201 4.8 17.7 0.00 0.00 0.00 37 1012.5
20260503184517 16 195 8.0 16.1 0.00 0.00 0.00 37 1012.6
20260503184013 16 216 0.0 16.1 0.00 0.00 0.00 39 1012.5
20260503183510 16 201 3.2 14.5 0.00 0.00 0.00 38 1012.6
20260503183007 17 224 8.0 12.9 0.00 0.00 0.00 37 1012.6
20260503182506 16 216 11.3 19.3 0.00 0.00 0.00 38 1012.7
20260503182004 16 284 4.8 12.9 0.00 0.00 0.00 37 1012.9
20260503181500 16 186 3.2 24.1 0.00 0.00 0.00 38 1012.9
20260503180956 16 224 3.2 14.5 0.00 0.00 0.00 38 1013.1
20260503180454 16 202 3.2 11.3 0.00 0.00 0.00 38 1013.1
20260503175951 16 239 1.6 20.9 0.00 0.00 0.00 39 1013.2
20260503175449 16 226 9.7 16.1 0.00 0.00 0.00 38 1013.0
20260503174944 16 133 3.2 24.1 0.00 0.00 0.00 37 1013.3
20260503174443 16 226 4.8 14.5 0.00 0.00 0.00 41 1013.3
20260503173943 16 218 6.4 11.3 0.00 0.00 0.00 38 1013.2
20260503173440 16 204 8.0 11.3 0.00 0.00 0.00 40 1013.2
20260503172937 16 179 4.8 17.7 0.00 0.00 0.00 41 1013.7
20260503172434 16 217 8.0 17.7 0.00 0.00 0.00 41 1013.6
20260503171930 16 192 3.2 30.6 0.00 0.00 0.00 40 1013.8
20260503171427 16 6 6.4 17.7 0.00 0.00 0.00 43 1013.9
20260503170925 16 234 9.7 12.9 0.00 0.00 0.00 42 1013.8
20260503170421 16 202 9.7 14.5 0.00 0.00 0.00 41 1013.8
20260503150813 13 216 8.0 19.3 0.00 0.00 0.00 41 1014.8
20260503150309 13 145 4.8 24.1 0.00 0.00 0.00 44 1014.9
20260503140234 11 149 8.0 12.9 0.00 0.00 0.00 46 1015.0
20260503131203 8 201 1.6 6.4 0.00 0.00 0.00 53 1015.6
20260503130700 8 192 4.8 9.7 0.00 0.00 0.00 54 1015.7
20260503130158 8 181 6.4 11.3 0.00 0.00 0.00 57 1015.8
20260503120123 5 165 3.2 6.4 0.00 0.00 0.00 71 1015.6
20260503110550 2 106 0.0 3.2 0.00 0.00 0.00 77 1015.6
20260503090437 2 91 1.6 4.8 0.00 0.00 0.00 78 1015.3
20260503081404 2 20 1.6 4.8 0.00 0.00 0.00 79 1015.5
20260503080901 2 72 3.2 4.8 0.00 0.00 0.00 79 1015.5
20260503080358 2 81 4.8 4.8 0.00 0.00 0.00 79 1015.4
20260503072834 2 98 0.0 4.8 0.00 0.00 0.00 81 1015.3
20260503072331 2 89 0.0 3.2 0.00 0.00 0.00 81 1015.3
20260503071827 2 180 0.0 4.8 0.00 0.00 0.00 81 1015.4
20260503071325 2 231 0.0 3.2 0.00 0.00 0.00 81 1015.4
20260503070821 2 76 1.6 4.8 0.00 0.00 0.00 81 1015.3
20260503070319 2 188 3.2 4.8 0.00 0.00 0.00 82 1015.2